{"data":{"norad_id":55940,"epoch":"2026-05-25T03:38:45.887136Z","epoch_age_seconds":72124,"freshness":"FRESH","line1":"1 55940U 23037AC  26145.15191999  .00000115  00000+0  17430-4 0  9995","line2":"2 55940  69.9999  91.6656 0002975 269.5033  90.5785 14.98333000175435","mean_motion":14.98333,"eccentricity":0.0002975,"inclination_deg":69.9999,"raan_deg":91.6656,"arg_perigee_deg":269.5033,"mean_anomaly_deg":90.5785,"bstar":1.743e-5,"rev_number":17543,"period_min":96.106806697844,"perigee_km":569.97893408229,"apogee_km":574.11429333244,"semimajor_km":6950.1836137074,"source":"CELESTRAK","updated_at":"2026-05-25T13:38:17.915870Z"}}